#timestamp,LO_Frequency,Hit,StdDev 
1503493215.3,286046998.4,N,1.2
1503493235.2,286047000.9,N,1.3
1503493255.9,286046999.8,N,1.3
1503493275.7,286047000.3,N,1.3
1503493295.6,286047000.8,N,1.4
1503493315.4,286047001.2,N,1.4
1503493335.2,286047000.8,N,1.5
1503493355.1,286047000.8,N,1.5
1503493356.0,286047000.8,N,1.5
1503493375.8,286047001.1,N,1.5
1503493395.7,286047000.9,N,1.5
1503493415.5,286046999.9,N,1.5
1503493435.3,286046999.8,N,1.5
1503493455.2,286046999.7,N,1.4
1503493475.0,286046999.9,N,1.4
1503493475.9,286046999.9,N,1.4
1503493495.8,286047002.2,N,1.4
1503493515.6,286047001.9,N,1.4
1503493535.4,286047002.1,N,1.4
1503493555.3,286046999.9,N,1.4
1503493575.1,286046999.7,N,1.4
1503493595.9,286047002.3,N,1.4
1503493615.7,286047002.2,N,1.3
1503493635.5,286047001.4,N,1.3
1503493655.4,286047002.5,N,1.2
1503493675.2,286047002.3,N,1.2
1503493695.0,286047002.1,N,1.1
1503493695.9,286047002.1,N,1.1
1503493715.8,286047002.5,N,1.1
1503493735.6,286047001.6,N,1.1
1503493755.5,286047002.2,N,1.0
1503493775.3,286047002.5,N,1.0
1503493795.1,286047002.1,N,1.0
1503493815.9,286047002.5,N,1.0
1503493835.7,286047001.8,N,1.0
1503493855.6,286047002.2,N,1.0
1503493875.4,286047001.7,N,1.0
1503493895.2,286047004.0,Y,0.0
1503493915.1,286047002.8,P,0.7
1503493916.0,286047002.8,P,0.7
1503493935.8,286047002.0,P,0.6
1503493955.6,286047001.5,N,0.6
1503493975.5,286047001.3,N,0.6
1503493995.3,286047003.7,Y,0.0
1503494015.2,286047001.6,P,0.2
1503494035.9,286047002.6,P,0.4
1503494055.7,286046999.7,N,1.1
1503494075.6,286047002.3,N,1.0
1503494095.4,286047002.8,N,1.0
1503494115.3,286047000.1,N,1.1
1503494135.1,286047002.6,N,1.1
1503494136.0,286047002.6,N,1.1
1503494155.8,286047002.4,N,1.0
1503494175.7,286047000.2,N,1.1
1503494195.5,286047000.2,N,1.1
1503494215.4,286047000.1,N,1.2
1503494235.2,286046999.8,N,1.2
1503494255.0,286047002.0,N,1.2
1503494255.9,286047002.0,N,1.1
1503494275.8,286047002.5,N,1.1
1503494295.6,286047002.1,N,1.1
1503494315.4,286047001.6,N,1.1
1503494335.3,286047002.4,N,1.1
1503494355.1,286047002.1,N,1.1
1503494375.9,286047001.9,N,1.0
1503494395.7,286047003.5,Y,0.0
1503494415.5,286046999.8,P,0.9
1503494435.4,286047002.6,N,1.2
1503494455.2,286047000.0,N,1.2
1503494475.1,286047000.1,N,1.1
1503494476.0,286047000.1,N,1.0
1503494495.8,286047000.1,N,1.0
1503494515.6,286047000.7,N,0.9
1503494535.5,286047000.7,N,0.9
1503494555.3,286047000.0,N,0.8
1503494575.2,286046999.9,N,0.8
1503494595.9,286047002.3,N,0.9
1503494615.7,286046999.9,N,0.9
1503494635.6,286047000.1,N,0.9
1503494655.4,286047000.3,N,0.9
1503494675.3,286047000.5,N,0.8
1503494695.1,286046999.7,N,0.8
1503494696.0,286046999.7,N,0.8
1503494715.8,286047000.3,N,0.8
1503494735.7,286047000.3,N,0.8
1503494755.5,286047000.1,N,0.8
1503494775.4,286047002.7,Y,0.0
1503494795.2,286047000.3,P,0.1
1503494815.0,286046999.7,P,0.3
1503494815.9,286046999.7,N,0.3
1503494835.8,286046999.8,N,0.3
1503494855.6,286047002.6,Y,0.0
1503494875.4,286047002.8,P,1.4
1503494895.3,286047000.0,N,1.3
1503494945.2,286047002.0,E,nan
1503494955.1,286047000.7,N,0.0
1503494956.0,286047000.7,P,0.0
1503494975.8,286046998.7,P,0.9
1503494995.7,286047000.8,N,0.9
1503495015.5,286046998.6,N,1.0
1503495035.3,286046998.7,N,1.0
1503495055.2,286046998.2,N,1.1
1503495075.0,286046998.6,N,1.1
1503495075.9,286046998.6,N,1.0
1503495095.7,286046999.0,N,1.0
1503495115.6,286046998.3,N,1.0
1503495135.4,286046998.8,N,0.9
1503495155.3,286047001.1,N,1.0
1503495175.1,286046998.2,N,1.0
1503495195.8,286046998.2,N,1.0
1503495215.7,286047001.2,N,1.1
1503495235.5,286047000.8,N,1.1
1503495255.4,286047000.8,N,1.2
1503495275.2,286047000.4,N,1.2
1503495295.0,286047000.3,N,1.1
1503495295.9,286047000.3,N,1.1
1503495315.8,286046999.9,N,1.1
1503495335.6,286047000.0,N,1.1
1503495355.4,286047000.7,N,1.1
1503495375.3,286046998.4,N,1.1
1503495395.1,286047001.2,N,1.1
1503495415.9,286047000.7,N,1.1
1503495435.7,286047001.0,N,1.1
1503495455.6,286047000.9,N,1.1
1503495475.4,286047001.2,N,1.1
1503495495.2,286047001.0,N,1.1
1503495515.1,286046998.1,N,1.2
1503495516.0,286046998.1,N,1.2
1503495535.8,286047000.8,N,1.2
1503495555.7,286047001.1,N,1.2
1503495575.5,286046998.1,N,1.2
1503495595.3,286047000.7,N,1.2
1503495615.2,286046998.2,N,1.2
1503495635.0,286047001.2,N,1.2
1503495635.9,286047001.2,N,1.2
1503495655.7,286046998.1,N,1.2
1503495675.6,286047000.8,N,1.2
1503495695.4,286046998.1,N,1.2
1503495715.3,286047000.8,N,1.2
1503495735.1,286047001.0,N,1.2
1503495736.0,286047001.0,N,1.2
1503495755.8,286047000.8,N,1.2
1503495775.7,286047000.9,N,1.2
1503495795.5,286047000.7,N,1.2
1503495815.4,286047000.4,N,1.2
1503495835.2,286047000.1,N,1.2
1503495855.0,286047000.1,N,1.2
1503495855.9,286047000.1,N,1.2
1503495875.8,286047000.9,N,1.2
1503495895.6,286047000.5,N,1.1
1503495915.5,286047001.0,N,1.1
1503495935.3,286047000.8,N,1.1
1503495955.1,286046999.9,N,1.1
1503495975.9,286047001.0,N,1.1
1503495995.7,286047000.8,N,1.1
1503496015.6,286046998.6,N,1.1
1503496035.4,286047001.0,N,1.1
1503496055.2,286047000.4,N,1.0
1503496075.1,286047000.9,N,1.0
1503496076.0,286047000.9,N,1.0
1503496095.8,286047000.9,N,0.9
1503496115.7,286046998.2,N,1.0
1503496135.5,286047001.1,N,0.9
1503496155.3,286047000.9,N,0.9
1503496175.2,286047000.8,N,0.9
1503496195.0,286046998.5,N,0.9
1503496195.9,286046998.5,N,0.9
1503496215.8,286046998.3,N,0.9
1503496235.6,286046998.1,N,1.0
1503496255.4,286046998.7,N,1.0
1503496275.3,286047000.5,N,1.0
1503496295.1,286046998.1,N,1.1
1503496315.8,286046998.2,N,1.1
1503496335.7,286047001.1,N,1.1
1503496355.5,286046998.5,N,1.1
1503496375.4,286047000.7,N,1.1
1503496395.2,286046998.5,N,1.2
1503496415.0,286046998.1,N,1.2
1503496415.9,286046998.1,N,1.2
1503496435.8,286047000.9,N,1.2
1503496455.6,286047000.5,N,1.2
1503496475.5,286046998.4,N,1.2
1503496495.3,286046998.8,N,1.2
1503496515.1,286046998.3,N,1.2
1503496535.9,286047001.1,N,1.3
1503496555.7,286046998.1,N,1.3
1503496575.6,286047001.2,N,1.3
1503496595.4,286047000.5,N,1.3
1503496615.2,286047000.4,N,1.3
1503496635.1,286047001.0,N,1.3
1503496636.0,286047001.0,N,1.3
1503496655.8,286047001.1,N,1.3
1503496675.6,286047000.6,N,1.3
1503496695.5,286047000.6,N,1.3
1503496715.3,286047001.2,N,1.3
1503496735.2,286046998.3,N,1.3
1503496755.0,286046998.8,N,1.3
1503496755.9,286046998.8,N,1.3
1503496775.8,286046999.0,N,1.2
1503496795.6,286046998.7,N,1.2
